User: anonymous   Login
Location: Springfield
(37.2150°N, 93.2980°W)
Time: 14:09:01
(UTC-06:00)
Language:

Iridium 62 - Orbit

View from above orbital plane
View from above orbital plane
View from above satellite
View from above satellite

Ground track
Ground track

The orbit data is extracted from the following two-line orbital elements,

1 25285U 98021A   17018.35086912  .00000172  00000-0  54293-4 0  9990
2 25285  86.3971 286.5393 0002100  87.0201 273.1236 14.34216501983545
Epoch (UTC): 18 January 2017 08:25:15
Eccentricity: 0.0002100
inclination: 86.3971°
perigee height: 776 km
apogee height: 779 km
right ascension of ascending node: 286.5393°
argument of perigee: 87.0201°
revolutions per day: 14.34216501
mean anomaly at epoch: 273.1236°
orbit number at epoch: 98354

The dashed part of the orbit path shows where the satellite is in the earth's shadow,  

DLR